Username
Password
 
Info Terbaru :
  

Jackpot hanya dapat di beli di awal sebelum periode tersebut berjalan dan jika berhasil maka anda dapat melihat di sisi kiri bawah atau kiri atas akan terdapat notifikasi bahwa jackpot anda berhasil di beli.

Jika anda membeli jackpot di tengah permainan maka pembelian jackpot akan berlaku untuk periode selanjutnya.

Jackpot Winner Ceme

Jackpot dilihat dari gabungan kartu pemain dengan kartu bandar. Bandar harus membeli jackpot sebanyak jumlah player yang sedang duduk. Sebagai contoh bila terdapat 3 pemain duduk bermain, dan bandar memutuskan untuk membeli jackpot Rp 1.000, maka pada periode tersebut bandar akan membeli jackpot sebanyak 3xRp1.000 = Rp3.000.

Jackpot bukanlah suatu keharusan untuk dibeli, namun kami memberikan suatu fitur tambahan untuk member tercinta dari www.dponlineku.com.

Terdapat tiga pilihan harga jackpot yang bisa anda beli yaitu :100,500 dan 1000 rupiah.

Hadiah dari Multi jackpot system www.dponlineku.com

  1. Murni Kecil x 50 harga jackpot yang anda beli.
      (contoH:anda membeli 1000 maka:1000 X 50 = 50.000)
  2. Murni Besar x 50 harga jackpot yang anda beli
      (contoH:anda membeli 1000 maka:1000 X 50 = 50.000)
  3. BALAK x 200 harga jackpot yang anda beli
      (contoH:anda membeli 1000 maka:1000 X 200 = 200.000)
  4. ENAM DEWA x 6666 harga jackpot yang anda beli
      (contoH:anda membeli 1000 maka:1000 X 6666 = 6.666.000)

Demikian adalah penjelasan dari Multi Jackpot www.dponlineku.com terima kasih dan selamat bermain salam hoki dari kami


Jackpot Winner

TOP ENAM DEWA
No. Tanggal Nama Price Win
1 23/02 18:48 HQ_33 murni enam 6,666,000
2 23/02 17:59 L4EMON murni enam 6,666,000
3 23/02 17:57 KARNOBOSS murni enam 3,333,000
4 23/02 17:56 MUKIJINK murni enam 6,666,000
5 23/02 17:56 HENDRI8282 murni enam 666,600
TOP BALAK
No. Tanggal Nama Price Win
1 23/02 18:51 SHOLOKAN69 balak 200,000
2 23/02 18:51 REZARAZU2805 balak 200,000
3 23/02 18:51 ATABRUMAH balak 100,000
4 23/02 18:50 AGOY33 balak 200,000
5 23/02 18:50 VIA155 balak 200,000
LATEST JACKPOT
No. Tanggal Nama Price Win
1 23/02 18:51 BUDIATHAR murni kecil 50,000
2 23/02 18:51 A5TUTI murni kecil 50,000
3 23/02 18:51 BECOK12 murni kecil 50,000
4 23/02 18:51 UGEH murni besar 50,000
5 23/02 18:51 B18TRA632 murni besar 50,000
6 23/02 18:51 MIUN988 murni kecil 50,000
7 23/02 18:51 DITO1237 murni kecil 5,000
8 23/02 18:51 MASPUR murni kecil 5,000
9 23/02 18:51 MBAUMIPKQ murni kecil 5,000
10 23/02 18:51 ALIEF7 murni kecil 50,000
11 23/02 18:51 SHOLOKAN69 balak 200,000
12 23/02 18:51 STUDIO21 murni besar 50,000
13 23/02 18:51 POKERLX murni besar 25,000
14 23/02 18:51 XXX7778 murni kecil 50,000
15 23/02 18:51 ABXGHO988 murni besar 50,000
16 23/02 18:51 ARIKUR22 murni besar 5,000
17 23/02 18:51 KDI88 murni kecil 5,000
18 23/02 18:51 GEGEGE murni kecil 5,000
19 23/02 18:51 KUAHTEMPE murni kecil 5,000
20 23/02 18:51 REZARAZU2805 balak 200,000
21 23/02 18:51 ATABRUMAH balak 100,000
22 23/02 18:51 YOYOY65432 murni kecil 25,000
23 23/02 18:51 CHERRY80 murni kecil 25,000
24 23/02 18:51 KEMEN murni besar 25,000
25 23/02 18:51 EPOT06 murni besar 5,000
26 23/02 18:50 B24PIUH33281 murni kecil 50,000
27 23/02 18:50 UTUH2230 murni kecil 50,000
28 23/02 18:50 AGUNGVIB murni kecil 25,000
29 23/02 18:50 GAHU99 murni kecil 50,000
30 23/02 18:50 AGOY33 balak 200,000
31 23/02 18:50 VIA155 balak 200,000
32 23/02 18:50 BATTU45 murni kecil 5,000
33 23/02 18:50 OMPARJO balak 200,000
34 23/02 18:50 CLIF55 balak 100,000
35 23/02 18:50 ADVENT murni besar 50,000
36 23/02 18:50 NGK08 murni besar 50,000
37 23/02 18:50 CARAKA1000 murni kecil 50,000
38 23/02 18:50 ANGEL6 murni besar 50,000
39 23/02 18:50 ALTURO11 murni kecil 5,000
40 23/02 18:50 CEPLEXS5 murni kecil 50,000
41 23/02 18:50 DANNYUYEE murni kecil 50,000
42 23/02 18:50 BOSKENTOT murni kecil 5,000
43 23/02 18:50 YOUNG77 murni besar 50,000
44 23/02 18:50 ZHIN murni besar 5,000
45 23/02 18:50 BEEJOO9 murni besar 25,000
46 23/02 18:50 ROEDY80 murni kecil 50,000
47 23/02 18:50 AFS80 murni kecil 50,000
48 23/02 18:50 D3W1999 murni kecil 25,000
49 23/02 18:50 IKANG murni kecil 5,000
50 23/02 18:50 BALI7888 murni besar 50,000


Situs Poker Online
Dewapoker.com Hadir untuk semua pecinta permainan kartu poker online yang khususnya berada di asia. Dengan system teknology baru dan server kecepatan tinggi akan membuat permainan poker anda lebih seru dan menarik bersama teman2x anda maupun saingan anda. Cukup lakukan login dan langsung bermain tanpa download. Dewapoker.com dengan encrypsi server yang tinggi akan menjamin keamanan data para member.
Terms & Conditions Link Alternatif Cara Bermain Video Dewapoker
© Copyright 2019 Dewa Poker. All right reserved.